Overview Statistics Trail Chart Weather Telemetry Raw packets
 

This is the latest recevied weather packets stored in our database for station/object KC1BRV. If no packets are shown the sender has not sent any weather packets the latest 10 day(s).

<< 68 69 70 71 72 73 74 >>
Time Temp. Humidity Pressure Rain* Wind** Luminosity Snow
1788132992 22.22° C 81% 1018.3 hPa 0 mm - 0 W/m² -
1788132687 22.22° C 80% 1018.3 hPa 0 mm - 0 W/m² -
1788132383 22.22° C 79% 1018.4 hPa 0 mm - 0 W/m² -
1788132079 22.22° C 79% 1018.4 hPa 0 mm - 1 W/m² -
1788131775 22.78° C 78% 1018.4 hPa 0 mm - 1 W/m² -
1788131474 22.78° C 78% 1018.5 hPa 0 mm - 2 W/m² -
1788131170 22.78° C 77% 1018.6 hPa 0 mm - 3 W/m² -
1788130870 22.78° C 76% 1018.1 hPa 0 mm - 4 W/m² -
1788130565 22.78° C 76% 1018.4 hPa 0 mm - 5 W/m² -
1788130259 22.78° C 75% 1018.4 hPa 0 mm - 6 W/m² -
1788129957 22.78° C 74% 1018.3 hPa 0 mm - 8 W/m² -
1788129654 22.78° C 74% 1018.4 hPa 0 mm - 12 W/m² -
1788129352 22.78° C 72% 1018.5 hPa 0 mm - 15 W/m² -
1788129051 23.33° C 71% 1018.5 hPa 0 mm - 16 W/m² -
1788128746 23.33° C 70% 1018.6 hPa 0 mm - 22 W/m² -
1788128442 23.33° C 70% 1018.8 hPa 0 mm - 30 W/m² -
1788128138 23.33° C 69% 1018.5 hPa 0 mm - 29 W/m² -
1788127834 23.33° C 68% 1018.6 hPa 0 mm - 31 W/m² -
1788127532 23.33° C 68% 1018.6 hPa 0 mm - 28 W/m² -
1788127231 23.33° C 67% 1018.5 hPa 0 mm - 26 W/m² -
1788126926 23.33° C 68% 1018.6 hPa 0 mm - 22 W/m² -
1788126621 23.33° C 66% 1018.7 hPa 0 mm - 21 W/m² -
1788126316 23.89° C 67% 1018.6 hPa 0 mm - 27 W/m² -
1788126016 23.89° C 65% 1018.6 hPa 0 mm - 24 W/m² -
1788125711 23.89° C 65% 1018.7 hPa 0 mm - 41 W/m² -

* Rain latest hour (hover to see other rain measurements)
** Current wind speed in m/s (hover to see current wind gust speed)